IGO2347 VABB-VAAH

Flight info

Callsign IGO2347
Flight time 0h 47m
Altitude 31000
Route ANOLI2A ISRIS G208 APANO APANO1A
Aircraft A20N/M-SDE2E3FGHIRWXY/LB1

Departure

Time 2026-04-18 10:35
Airport Chhatrapati Shivaji Maharaj International Airport (VABB)

Arrival

Time 2026-04-18 11:23
Airport Sardar Vallabh Patel International Airport (VAAH)
Time Latitude Longitude Altitude Speed Heading
2026-04-18 09:54 19.09148 72.85449 31 ft 0 kts
2026-04-18 10:24 19.09141 72.85449 31 ft 2 kts
2026-04-18 10:24 19.09127 72.85449 31 ft 2 kts
2026-04-18 10:24 19.09112 72.85449 30 ft 2 kts
2026-04-18 10:25 19.09098 72.85446 30 ft 2 kts 41°
2026-04-18 10:25 19.09090 72.85432 30 ft 2 kts 88°
2026-04-18 10:25 19.09091 72.85419 30 ft 0 kts 89°
2026-04-18 10:25 19.09091 72.85416 30 ft 0 kts 87°
2026-04-18 10:28 19.09092 72.85422 30 ft 2 kts 87°
2026-04-18 10:28 19.09093 72.85462 30 ft 8 kts 90°
2026-04-18 10:29 19.09093 72.85535 30 ft 10 kts 89°
2026-04-18 10:29 19.09077 72.85593 30 ft 8 kts 143°
2026-04-18 10:29 19.09028 72.85640 29 ft 11 kts 106°
2026-04-18 10:29 19.09028 72.85735 29 ft 15 kts 88°
2026-04-18 10:30 19.09029 72.85854 30 ft 18 kts 89°
2026-04-18 10:30 19.09032 72.85992 32 ft 20 kts 89°
2026-04-18 10:30 19.09034 72.86156 32 ft 21 kts 91°
2026-04-18 10:30 19.09034 72.86312 32 ft 21 kts 89°
2026-04-18 10:31 19.09038 72.86467 32 ft 20 kts 89°
2026-04-18 10:31 19.09040 72.86619 31 ft 20 kts 88°
2026-04-18 10:31 19.09041 72.86770 32 ft 20 kts 89°
2026-04-18 10:31 19.09045 72.86923 30 ft 21 kts 88°
2026-04-18 10:32 19.09046 72.87078 29 ft 21 kts 89°
2026-04-18 10:32 19.09049 72.87231 29 ft 20 kts 89°
2026-04-18 10:32 19.09050 72.87382 29 ft 20 kts 90°
2026-04-18 10:32 19.09051 72.87532 30 ft 19 kts 88°
2026-04-18 10:33 19.09054 72.87672 31 ft 18 kts 90°
2026-04-18 10:33 19.09055 72.87810 32 ft 18 kts 89°
2026-04-18 10:33 19.09059 72.87936 36 ft 15 kts 88°
2026-04-18 10:33 19.09061 72.88020 38 ft 6 kts 103°
2026-04-18 10:34 19.09026 72.88049 39 ft 7 kts 168°
2026-04-18 10:34 19.08969 72.88057 38 ft 11 kts 178°
2026-04-18 10:34 19.08887 72.88005 36 ft 18 kts 252°
2026-04-18 10:34 19.08886 72.87833 32 ft 44 kts 270°
2026-04-18 10:35 19.08880 72.87255 27 ft 109 kts 270°
2026-04-18 10:35 19.08863 72.86265 34 ft 160 kts 270°
2026-04-18 10:35 19.08843 72.85001 433 ft 171 kts 270°
2026-04-18 10:35 19.08793 72.83808 1109 ft 166 kts 269°
2026-04-18 10:36 19.08756 72.82579 1756 ft 164 kts 272°
2026-04-18 10:36 19.08756 72.81330 2101 ft 174 kts 272°
2026-04-18 10:36 19.08757 72.79982 2409 ft 188 kts 272°
2026-04-18 10:36 19.08749 72.78532 2707 ft 203 kts 271°
2026-04-18 10:37 19.08734 72.76956 2977 ft 221 kts 271°
2026-04-18 10:37 19.08715 72.75207 3265 ft 242 kts 272°
2026-04-18 10:37 19.09066 72.73394 3599 ft 258 kts 299°
2026-04-18 10:37 19.10290 72.71967 4098 ft 268 kts 329°
2026-04-18 10:38 19.11988 72.71387 4791 ft 270 kts 358°
2026-04-18 10:38 19.13846 72.71803 5532 ft 274 kts 28°
2026-04-18 10:38 19.15333 72.73050 6296 ft 277 kts 41°
2026-04-18 10:38 19.16942 72.74206 7025 ft 280 kts 19°
2026-04-18 10:39 19.18894 72.74478 7794 ft 282 kts 360°
2026-04-18 10:39 19.20878 72.74426 8559 ft 286 kts 358°
2026-04-18 10:39 19.22901 72.74329 9280 ft 290 kts 358°
2026-04-18 10:39 19.24924 72.74219 9999 ft 294 kts 358°
2026-04-18 10:40 19.27045 72.74101 10501 ft 307 kts 357°
2026-04-18 10:40 19.29251 72.74045 10816 ft 324 kts
2026-04-18 10:40 19.31563 72.74178 11121 ft 341 kts
2026-04-18 10:40 19.33986 72.74503 11412 ft 357 kts
2026-04-18 10:41 19.36542 72.74898 11693 ft 373 kts
2026-04-18 10:41 19.39177 72.75311 11952 ft 388 kts
2026-04-18 10:41 19.41934 72.75741 12202 ft 402 kts
2026-04-18 10:41 19.44727 72.76175 12470 ft 413 kts
2026-04-18 10:42 19.47607 72.76619 12968 ft 418 kts
2026-04-18 10:42 19.50517 72.77068 13554 ft 420 kts
2026-04-18 10:42 19.53455 72.77520 14096 ft 423 kts
2026-04-18 10:42 19.56382 72.77970 14620 ft 427 kts
2026-04-18 10:43 19.59322 72.78423 15137 ft 430 kts
2026-04-18 10:43 19.62308 72.78883 15649 ft 433 kts
2026-04-18 10:43 19.65344 72.79350 16157 ft 436 kts
2026-04-18 10:43 19.68383 72.79819 16653 ft 440 kts
2026-04-18 10:44 19.71405 72.80284 17134 ft 443 kts
2026-04-18 10:44 19.74485 72.80759 17611 ft 446 kts
2026-04-18 10:44 19.77578 72.81236 18079 ft 449 kts
2026-04-18 10:44 19.80702 72.81718 18539 ft 452 kts
2026-04-18 10:45 19.83836 72.82202 18988 ft 455 kts
2026-04-18 10:45 19.87020 72.82694 19434 ft 458 kts
2026-04-18 10:45 19.90197 72.83185 19874 ft 461 kts
2026-04-18 10:45 19.93387 72.83678 20299 ft 464 kts
2026-04-18 10:46 19.96577 72.84171 20714 ft 467 kts
2026-04-18 10:46 19.99818 72.84672 21129 ft 470 kts
2026-04-18 10:46 20.03115 72.85182 21535 ft 472 kts
2026-04-18 10:46 20.06357 72.85684 21900 ft 475 kts
2026-04-18 10:47 20.09672 72.86186 22238 ft 478 kts
2026-04-18 10:47 20.12987 72.86625 22553 ft 481 kts
2026-04-18 10:47 20.16380 72.87050 22849 ft 484 kts
2026-04-18 10:47 20.19742 72.87467 23130 ft 486 kts
2026-04-18 10:48 20.23139 72.87893 23443 ft 488 kts
2026-04-18 10:48 20.26541 72.88322 23875 ft 486 kts
2026-04-18 10:48 20.29884 72.88747 24338 ft 484 kts
2026-04-18 10:48 20.33246 72.89176 24790 ft 483 kts
2026-04-18 10:49 20.36470 72.89589 25212 ft 482 kts
2026-04-18 10:49 20.39852 72.90022 25646 ft 481 kts
2026-04-18 10:49 20.43139 72.90443 26063 ft 480 kts
2026-04-18 10:49 20.46483 72.90872 26481 ft 479 kts
2026-04-18 10:50 20.49847 72.91304 26895 ft 478 kts
2026-04-18 10:50 20.53120 72.91724 27293 ft 478 kts
2026-04-18 10:50 20.56449 72.92152 27694 ft 477 kts
2026-04-18 10:50 20.59778 72.92579 28094 ft 476 kts
2026-04-18 10:51 20.63093 72.93005 28491 ft 475 kts
2026-04-18 10:51 20.66390 72.93429 28882 ft 474 kts
2026-04-18 10:51 20.69675 72.93851 29251 ft 473 kts
2026-04-18 10:51 20.72965 72.94275 29557 ft 474 kts
2026-04-18 10:52 20.76265 72.94617 29821 ft 476 kts
2026-04-18 10:52 20.79616 72.94800 30086 ft 477 kts
2026-04-18 10:52 20.82914 72.94925 30348 ft 478 kts
2026-04-18 10:52 20.86263 72.95040 30604 ft 479 kts
2026-04-18 10:53 20.89649 72.95156 30783 ft 480 kts
2026-04-18 10:53 20.96337 72.95392 30788 ft 481 kts
2026-04-18 10:54 21.03079 72.95641 30793 ft 481 kts
2026-04-18 10:54 21.09756 72.95889 30791 ft 473 kts
2026-04-18 10:55 21.16023 72.96114 30790 ft 469 kts
2026-04-18 10:55 21.22586 72.96394 30789 ft 469 kts
2026-04-18 10:56 21.29096 72.96744 30789 ft 469 kts
2026-04-18 10:56 21.35668 72.97094 30788 ft 469 kts
2026-04-18 10:57 21.42194 72.97436 30788 ft 469 kts
2026-04-18 10:57 21.48758 72.97778 30564 ft 471 kts
2026-04-18 10:57 21.52056 72.97948 29635 ft 474 kts
2026-04-18 10:58 21.55375 72.98034 28730 ft 473 kts 357°
2026-04-18 10:58 21.58663 72.97795 27839 ft 471 kts 352°
2026-04-18 10:58 21.61920 72.97210 26925 ft 469 kts 347°
2026-04-18 10:58 21.65069 72.96365 26011 ft 468 kts 345°
2026-04-18 10:59 21.68226 72.95444 25050 ft 469 kts 344°
2026-04-18 10:59 21.71392 72.94502 24040 ft 470 kts 344°
2026-04-18 10:59 21.74547 72.93564 22986 ft 472 kts 345°
2026-04-18 10:59 21.77731 72.92621 22106 ft 468 kts 345°
2026-04-18 11:00 21.80881 72.91691 21444 ft 461 kts 345°
2026-04-18 11:00 21.83985 72.90777 20717 ft 456 kts 345°
2026-04-18 11:00 21.87055 72.89874 20028 ft 451 kts 345°
2026-04-18 11:00 21.90054 72.88992 19364 ft 446 kts 345°
2026-04-18 11:01 21.93064 72.88106 18698 ft 440 kts 345°
2026-04-18 11:01 21.96036 72.87231 18037 ft 436 kts 345°
2026-04-18 11:01 21.98944 72.86375 17379 ft 431 kts 345°
2026-04-18 11:02 22.04765 72.84660 15991 ft 425 kts 345°
2026-04-18 11:02 22.07602 72.83823 15336 ft 421 kts 345°
2026-04-18 11:02 22.10242 72.83044 14726 ft 418 kts 345°
2026-04-18 11:02 22.13043 72.82218 14079 ft 414 kts 346°
2026-04-18 11:03 22.15848 72.81390 13427 ft 411 kts 346°
2026-04-18 11:03 22.18588 72.80581 12786 ft 408 kts 346°
2026-04-18 11:03 22.21345 72.79766 12170 ft 403 kts 345°
2026-04-18 11:03 22.24022 72.78975 11760 ft 393 kts 345°
2026-04-18 11:04 22.26652 72.78207 11386 ft 382 kts 346°
2026-04-18 11:04 22.29210 72.77471 11137 ft 369 kts 346°
2026-04-18 11:04 22.31687 72.76760 10904 ft 356 kts 346°
2026-04-18 11:04 22.34075 72.76074 10675 ft 345 kts 346°
2026-04-18 11:05 22.36360 72.75417 10463 ft 334 kts 346°
2026-04-18 11:05 22.38598 72.74772 10270 ft 322 kts 346°
2026-04-18 11:05 22.40763 72.74149 10096 ft 311 kts 346°
2026-04-18 11:05 22.42830 72.73552 9946 ft 300 kts 346°
2026-04-18 11:06 22.44841 72.72971 9809 ft 289 kts 346°
2026-04-18 11:06 22.46769 72.72415 9650 ft 281 kts 346°
2026-04-18 11:06 22.48659 72.71870 9278 ft 282 kts 346°
2026-04-18 11:06 22.50579 72.71317 8920 ft 281 kts 346°
2026-04-18 11:07 22.52482 72.70766 8574 ft 279 kts 346°
2026-04-18 11:07 22.54371 72.70222 8233 ft 278 kts 346°
2026-04-18 11:07 22.56244 72.69680 7943 ft 274 kts 346°
2026-04-18 11:07 22.58095 72.69144 7730 ft 272 kts 346°
2026-04-18 11:08 22.59960 72.68600 7382 ft 271 kts 346°
2026-04-18 11:08 22.61784 72.68066 7087 ft 268 kts 346°
2026-04-18 11:08 22.63607 72.67533 6809 ft 265 kts 345°
2026-04-18 11:08 22.65390 72.67012 6543 ft 262 kts 345°
2026-04-18 11:09 22.67150 72.66497 6284 ft 259 kts 345°
2026-04-18 11:09 22.68910 72.65982 6026 ft 257 kts 345°
2026-04-18 11:09 22.70635 72.65477 5774 ft 256 kts 345°
2026-04-18 11:09 22.72370 72.64970 5520 ft 255 kts 345°
2026-04-18 11:10 22.74114 72.64459 5264 ft 254 kts 345°
2026-04-18 11:10 22.75821 72.63959 5015 ft 253 kts 345°
2026-04-18 11:10 22.77528 72.63459 4765 ft 252 kts 345°
2026-04-18 11:10 22.79231 72.62961 4516 ft 251 kts 345°
2026-04-18 11:11 22.80941 72.62460 4266 ft 250 kts 345°
2026-04-18 11:11 22.82625 72.61966 4019 ft 249 kts 345°
2026-04-18 11:11 22.84323 72.61472 3977 ft 246 kts 345°
2026-04-18 11:11 22.85949 72.61003 3978 ft 234 kts 345°
2026-04-18 11:12 22.87548 72.60623 3975 ft 233 kts 359°
2026-04-18 11:12 22.89083 72.61096 3973 ft 234 kts 37°
2026-04-18 11:12 22.90281 72.62324 3994 ft 235 kts 45°
2026-04-18 11:12 22.91431 72.63647 3991 ft 234 kts 45°
2026-04-18 11:13 22.92568 72.64937 3990 ft 234 kts 45°
2026-04-18 11:13 22.93713 72.66216 3989 ft 234 kts 44°
2026-04-18 11:13 22.94869 72.67496 3989 ft 234 kts 44°
2026-04-18 11:13 22.96024 72.68766 3989 ft 234 kts 44°
2026-04-18 11:14 22.97186 72.70042 3989 ft 234 kts 44°
2026-04-18 11:14 22.98345 72.71311 3989 ft 234 kts 44°
2026-04-18 11:14 22.99488 72.72565 3989 ft 233 kts 44°
2026-04-18 11:14 23.00646 72.73834 3989 ft 233 kts 44°
2026-04-18 11:15 23.01811 72.75102 3991 ft 233 kts 43°
2026-04-18 11:15 23.02980 72.76347 3993 ft 233 kts 43°
2026-04-18 11:15 23.04162 72.77599 3994 ft 233 kts 43°
2026-04-18 11:15 23.05336 72.78843 3994 ft 233 kts 43°
2026-04-18 11:16 23.06511 72.80089 3935 ft 233 kts 43°
2026-04-18 11:16 23.07689 72.81338 3597 ft 234 kts 43°
2026-04-18 11:16 23.08852 72.82574 3312 ft 230 kts 43°
2026-04-18 11:16 23.09979 72.83773 3242 ft 217 kts 43°
2026-04-18 11:17 23.11044 72.84907 3138 ft 210 kts 43°
2026-04-18 11:17 23.12181 72.85926 3048 ft 208 kts 21°
2026-04-18 11:17 23.13602 72.86023 3004 ft 206 kts 339°
2026-04-18 11:17 23.14803 72.85157 3001 ft 207 kts 315°
2026-04-18 11:18 23.15803 72.84001 2972 ft 207 kts 314°
2026-04-18 11:18 23.16802 72.82842 2926 ft 207 kts 315°
2026-04-18 11:18 23.17815 72.81708 2869 ft 207 kts 315°
2026-04-18 11:18 23.18714 72.80467 2730 ft 208 kts 292°
2026-04-18 11:19 23.18916 72.78885 2561 ft 210 kts 267°
2026-04-18 11:19 23.18722 72.77280 2393 ft 211 kts 262°
2026-04-18 11:19 23.18451 72.75704 2216 ft 210 kts 257°
2026-04-18 11:19 23.17802 72.74257 2032 ft 211 kts 233°
2026-04-18 11:20 23.16835 72.73105 1987 ft 198 kts 225°
2026-04-18 11:20 23.15846 72.72096 1957 ft 185 kts 225°
2026-04-18 11:20 23.14928 72.71154 1911 ft 176 kts 226°
2026-04-18 11:20 23.14049 72.70223 1658 ft 171 kts 226°
2026-04-18 11:21 23.13227 72.69342 1412 ft 160 kts 226°
2026-04-18 11:21 23.12444 72.68501 1180 ft 154 kts 226°
2026-04-18 11:21 23.11678 72.67678 986 ft 154 kts 226°
2026-04-18 11:21 23.10904 72.66850 786 ft 154 kts 226°
2026-04-18 11:22 23.10133 72.66026 583 ft 153 kts 226°
2026-04-18 11:22 23.09376 72.65214 381 ft 153 kts 226°
2026-04-18 11:22 23.08617 72.64395 197 ft 148 kts 226°
2026-04-18 11:22 23.07962 72.63696 192 ft 105 kts 224°
2026-04-18 11:23 23.07559 72.63268 188 ft 57 kts 223°
2026-04-18 11:23 23.07290 72.62974 187 ft 47 kts 225°
2026-04-18 11:23 23.07175 72.62785 186 ft 23 kts 259°
2026-04-18 11:23 23.07153 72.62643 186 ft 10 kts 259°
2026-04-18 11:24 23.07137 72.62569 188 ft 9 kts 243°
2026-04-18 11:24 23.07088 72.62515 189 ft 11 kts 221°
2026-04-18 11:24 23.07025 72.62453 189 ft 12 kts 224°
2026-04-18 11:24 23.06964 72.62387 189 ft 12 kts 224°
2026-04-18 11:25 23.06902 72.62322 189 ft 12 kts 224°
2026-04-18 11:25 23.06848 72.62264 189 ft 8 kts 232°
2026-04-18 11:25 23.06860 72.62206 189 ft 8 kts 309°
2026-04-18 11:25 23.06906 72.62155 189 ft 8 kts 316°
2026-04-18 11:26 23.06949 72.62110 189 ft 8 kts 314°
2026-04-18 11:26 23.06991 72.62062 189 ft 9 kts 314°
2026-04-18 11:26 23.07018 72.61994 189 ft 10 kts 273°
2026-04-18 11:26 23.07024 72.61932 189 ft 7 kts 290°
2026-04-18 11:27 23.07060 72.61885 188 ft 7 kts 317°
2026-04-18 11:27 23.07082 72.61868 187 ft 3 kts 346°
2026-04-18 11:27 23.07103 72.61877 187 ft 0 kts 40°
2026-04-18 11:27 23.07110 72.61884 187 ft 1 kts 44°
2026-04-18 11:28 23.07117 72.61892 187 ft 0 kts 44°
2026-04-18 11:28 23.07118 72.61892 187 ft 0 kts 44°